< < Back
Terminal Aerodrome Forecast


Current Version              Previous Versions:   1  2  3  4  5  6  7  8  9  

Terminal Aerodrome Forecast

898
FTUS42 KGSP 302334
TAFAVL
TAF
KAVL 302334Z 3100/3124 33012G18KT P6SM FEW060 FEW250
     FM311200 35009KT P6SM FEW250
     FM311500 35004KT P6SM SKC=



Latest METAR

389
SAUS70 KWBC 310300 RRF
MTRAVL
METAR KAVL 310254Z AUTO 34011KT 10SM CLR 26/19 A3007 RMK AO2 SLP150
T02560189 51019


USA.gov is the U.S. government's official web portal to all federal, state and local government web resources and services.